,,,PA_Meas_PMT16A,,PR_Meas_QMR101_102,,RH_Meas_QMH101,,SR_Meas_QMS101,,TA_Meas_QMH101,,GenWind,,GenWind,
date,time,status,PA,status,PR,status,RH,status,SR,status,TA,status,DirAvg,status,SpdAvg,
2010-11-28, 00:00:04,VALID,999.208,VALID,0,VALID,92.6617,VALID,0,VALID,23.6427,VALID,116,VALID,0.2625,
2010-11-28, 00:01:04,VALID,999.2,VALID,0,VALID,92.6312,VALID,0,VALID,23.6427,VALID,116,VALID,0.260156,
2010-11-28, 00:02:04,VALID,999.214,VALID,0,VALID,92.5626,VALID,0,VALID,23.6427,VALID,116,VALID,0.139453,
2010-11-28, 00:03:04,VALID,999.225,VALID,0,VALID,92.5244,VALID,0,VALID,23.6445,VALID,116,VALID,0.0566406,
2010-11-28, 00:04:04,VALID,999.224,VALID,0,VALID,92.4557,VALID,0,VALID,23.625,VALID,116,VALID,0.0855469,
2010-11-28, 00:05:04,VALID,999.233,VALID,0,VALID,92.4328,VALID,0,VALID,23.6054,VALID,116,VALID,0.286719,
2010-11-28, 00:06:04,VALID,999.233,VALID,0,VALID,92.3794,VALID,0,VALID,23.5646,VALID,116,VALID,0.196875,
2010-11-28, 00:07:04,VALID,999.179,VALID,0,VALID,92.3489,VALID,0,VALID,23.5646,VALID,116,VALID,0.328906,
2010-11-28, 00:08:04,VALID,999.178,VALID,0,VALID,92.3489,VALID,0,VALID,23.5646,VALID,116,VALID,0.240625,
2010-11-28, 00:09:04,VALID,999.141,VALID,0,VALID,92.3108,VALID,0,VALID,23.5646,VALID,116,VALID,0.325391,
2010-11-28, 00:10:04,VALID,999.173,VALID,0,VALID,92.3337,VALID,0,VALID,23.5646,VALID,116,VALID,0.216016,
2010-11-28, 00:11:04,VALID,999.185,VALID,0,VALID,92.2955,VALID,0,VALID,23.5646,VALID,116,VALID,0.231641,
2010-11-28, 00:12:04,VALID,999.142,VALID,0,VALID,92.3031,VALID,0,VALID,23.5451,VALID,116,VALID,0.400391,
2010-11-28, 00:13:04,VALID,999.149,VALID,0,VALID,92.3184,VALID,0,VALID,23.5451,VALID,113,VALID,0.394922,
2010-11-28, 00:14:04,VALID,999.102,VALID,0,VALID,92.3184,VALID,0,VALID,23.5664,VALID,113,VALID,0.298047,
2010-11-28, 00:15:04,VALID,999.094,VALID,0,VALID,92.3566,VALID,0,VALID,23.5451,VALID,113,VALID,0.359375,
2010-11-28, 00:16:04,VALID,999.084,VALID,0,VALID,92.3947,VALID,0,VALID,23.5841,VALID,113,VALID,0.483984,
2010-11-28, 00:17:04,VALID,999.071,VALID,0,VALID,92.4176,VALID,0,VALID,23.5664,VALID,113,VALID,0.557031,
2010-11-28, 00:18:04,VALID,999.082,VALID,0,VALID,92.4405,VALID,0,VALID,23.5841,VALID,113,VALID,0.553906,
2010-11-28, 00:19:04,VALID,999.084,VALID,0,VALID,92.471,VALID,0,VALID,23.5841,VALID,64,VALID,0.814844,
2010-11-28, 00:20:04,VALID,999.065,VALID,0,VALID,92.4634,VALID,0,VALID,23.5451,VALID,64,VALID,0.761328,
2010-11-28, 00:21:04,VALID,999.088,VALID,0,VALID,92.4481,VALID,0,VALID,23.5274,VALID,64,VALID,0.609375,
2010-11-28, 00:22:04,VALID,999.039,VALID,0,VALID,92.4634,VALID,0,VALID,23.5079,VALID,64,VALID,0.694141,
2010-11-28, 00:23:04,VALID,999.036,VALID,0,VALID,92.471,VALID,0,VALID,23.4671,VALID,34,VALID,0.723437,
2010-11-28, 00:24:04,VALID,999.03,VALID,0,VALID,92.4786,VALID,0,VALID,23.4475,VALID,15,VALID,0.628906,
2010-11-28, 00:25:04,VALID,998.991,VALID,0,VALID,92.4863,VALID,0,VALID,23.4884,VALID,6,VALID,0.451953,
2010-11-28, 00:26:04,VALID,998.96,VALID,0,VALID,92.5015,VALID,0,VALID,23.4884,VALID,6,VALID,0.175781,
2010-11-28, 00:27:04,VALID,998.95,VALID,0,VALID,92.5244,VALID,0,VALID,23.4475,VALID,6,VALID,0,
2010-11-28, 00:28:04,VALID,998.938,VALID,0,VALID,92.532,VALID,0,VALID,23.4475,VALID,6,VALID,0,
2010-11-28, 00:29:04,VALID,998.94,VALID,0,VALID,92.5778,VALID,0,VALID,23.428,VALID,6,VALID,0,
2010-11-28, 00:30:04,VALID,998.942,VALID,0,VALID,92.5778,VALID,0,VALID,23.4688,VALID,6,VALID,0,
2010-11-28, 00:31:04,VALID,998.934,VALID,0,VALID,92.6312,VALID,0,VALID,23.4688,VALID,6,VALID,0,
2010-11-28, 00:32:04,VALID,998.904,VALID,0,VALID,92.6617,VALID,0,VALID,23.4671,VALID,6,VALID,0,
2010-11-28, 00:33:04,VALID,998.875,VALID,0,VALID,92.677,VALID,0,VALID,23.4475,VALID,6,VALID,0,
2010-11-28, 00:34:04,VALID,998.82,VALID,0,VALID,92.7151,VALID,0,VALID,23.4671,VALID,6,VALID,0,
2010-11-28, 00:35:04,VALID,998.819,VALID,0,VALID,92.7151,VALID,0,VALID,23.428,VALID,6,VALID,0,
2010-11-28, 00:36:04,VALID,998.79,VALID,0,VALID,92.738,VALID,0,VALID,23.4298,VALID,6,VALID,0,
2010-11-28, 00:37:04,VALID,998.785,VALID,0,VALID,92.7533,VALID,0,VALID,23.428,VALID,6,VALID,0,
2010-11-28, 00:38:04,VALID,998.778,VALID,0,VALID,92.7914,VALID,0,VALID,23.4688,VALID,6,VALID,0,
2010-11-28, 00:39:04,VALID,998.81,VALID,0,VALID,92.8067,VALID,0,VALID,23.4884,VALID,6,VALID,0,
2010-11-28, 00:40:04,VALID,998.758,VALID,0,VALID,92.8143,VALID,0,VALID,23.4671,VALID,6,VALID,0,
2010-11-28, 00:41:04,VALID,998.775,VALID,0,VALID,92.8525,VALID,0,VALID,23.4671,VALID,6,VALID,0,
2010-11-28, 00:42:04,VALID,998.792,VALID,0,VALID,92.8143,VALID,0,VALID,23.4085,VALID,6,VALID,0,
2010-11-28, 00:43:04,VALID,998.74,VALID,0,VALID,92.8067,VALID,0,VALID,23.3677,VALID,6,VALID,0,
2010-11-28, 00:44:04,VALID,998.756,VALID,0,VALID,92.7991,VALID,0,VALID,23.3695,VALID,6,VALID,0,
2010-11-28, 00:45:04,VALID,998.746,VALID,0,VALID,92.7991,VALID,0,VALID,23.3482,VALID,6,VALID,0,
2010-11-28, 00:46:04,VALID,998.77,VALID,0,VALID,92.8448,VALID,0,VALID,23.3287,VALID,6,VALID,0,
2010-11-28, 00:47:04,VALID,998.805,VALID,0,VALID,92.8677,VALID,0,VALID,23.3695,VALID,6,VALID,0,
2010-11-28, 00:48:04,VALID,998.782,VALID,0,VALID,92.8601,VALID,0,VALID,23.389,VALID,6,VALID,0,
2010-11-28, 00:49:04,VALID,998.784,VALID,0,VALID,92.8983,VALID,0,VALID,23.3482,VALID,6,VALID,0,
2010-11-28, 00:50:04,VALID,998.772,VALID,0,VALID,92.9059,VALID,0,VALID,23.3695,VALID,6,VALID,0,
2010-11-28, 00:51:04,VALID,998.788,VALID,0,VALID,92.9288,VALID,0.112286,VALID,23.3482,VALID,6,VALID,0,
2010-11-28, 00:52:04,VALID,998.794,VALID,0,VALID,92.9059,VALID,0,VALID,23.3092,VALID,6,VALID,0.131641,
2010-11-28, 00:53:04,VALID,998.771,VALID,0,VALID,92.944,VALID,0,VALID,23.2915,VALID,6,VALID,0.371875,
2010-11-28, 00:54:04,VALID,998.769,VALID,0,VALID,92.9364,VALID,0,VALID,23.2507,VALID,6,VALID,0.277344,
2010-11-28, 00:55:04,VALID,998.776,VALID,0,VALID,92.9211,VALID,0,VALID,23.1939,VALID,6,VALID,0.314844,
2010-11-28, 00:56:04,VALID,998.772,VALID,0,VALID,92.9288,VALID,0,VALID,23.1566,VALID,6,VALID,0.0785156,
2010-11-28, 00:57:04,VALID,998.768,VALID,0,VALID,92.9364,VALID,0,VALID,23.1371,VALID,6,VALID,0,
2010-11-28, 00:58:04,VALID,998.762,VALID,0,VALID,92.9364,VALID,0,VALID,23.1762,VALID,6,VALID,0.190234,
2010-11-28, 00:59:04,VALID,998.752,VALID,0,VALID,92.9517,VALID,0,VALID,23.1354,VALID,6,VALID,0.509375,
2010-11-28, 01:00:04,VALID,998.768,VALID,0,VALID,92.9745,VALID,0,VALID,23.1762,VALID,6,VALID,0,
2010-11-28, 01:01:04,VALID,998.724,VALID,0,VALID,92.9745,VALID,0,VALID,23.1957,VALID,6,VALID,0,
2010-11-28, 01:02:04,VALID,998.719,VALID,0,VALID,93.0127,VALID,0,VALID,23.1549,VALID,6,VALID,0,
2010-11-28, 01:03:04,VALID,998.762,VALID,0,VALID,93.028,VALID,0,VALID,23.1957,VALID,6,VALID,0,
2010-11-28, 01:04:04,VALID,998.726,VALID,0,VALID,93.0508,VALID,0,VALID,23.1762,VALID,6,VALID,0,
2010-11-28, 01:05:04,VALID,998.741,VALID,0,VALID,93.0508,VALID,0,VALID,23.1762,VALID,6,VALID,0,
2010-11-28, 01:06:04,VALID,998.734,VALID,0,VALID,93.0737,VALID,0,VALID,23.1957,VALID,6,VALID,0,
2010-11-28, 01:07:04,VALID,998.755,VALID,0,VALID,93.1043,VALID,0,VALID,23.1939,VALID,6,VALID,0,
2010-11-28, 01:08:04,VALID,998.762,VALID,0,VALID,93.1043,VALID,0,VALID,23.1957,VALID,6,VALID,0,
2010-11-28, 01:09:04,VALID,998.779,VALID,0,VALID,93.1043,VALID,0,VALID,23.1159,VALID,6,VALID,0,
2010-11-28, 01:10:04,VALID,998.789,VALID,0,VALID,93.1195,VALID,0,VALID,23.1176,VALID,6,VALID,0,
2010-11-28, 01:11:04,VALID,998.779,VALID,0,VALID,93.1424,VALID,0,VALID,23.1371,VALID,6,VALID,0,
2010-11-28, 01:12:04,VALID,998.804,VALID,0,VALID,93.1424,VALID,0,VALID,23.1159,VALID,6,VALID,0,
2010-11-28, 01:13:04,VALID,998.79,VALID,0,VALID,93.1653,VALID,0,VALID,23.1371,VALID,6,VALID,0,
2010-11-28, 01:14:04,VALID,998.781,VALID,0,VALID,93.1729,VALID,0,VALID,23.1371,VALID,6,VALID,0,
2010-11-28, 01:15:04,VALID,998.766,VALID,0,VALID,93.1882,VALID,0,VALID,23.1371,VALID,6,VALID,0,
2010-11-28, 01:16:04,VALID,998.786,VALID,0,VALID,93.2034,VALID,0,VALID,23.0964,VALID,6,VALID,0,
2010-11-28, 01:17:04,VALID,998.784,VALID,0,VALID,93.2034,VALID,0,VALID,23.0981,VALID,6,VALID,0,
2010-11-28, 01:18:04,VALID,998.801,VALID,0,VALID,93.2111,VALID,0,VALID,23.1176,VALID,6,VALID,0,
2010-11-28, 01:19:04,VALID,998.778,VALID,0,VALID,93.2111,VALID,0,VALID,23.0981,VALID,6,VALID,0,
2010-11-28, 01:20:04,VALID,998.788,VALID,0,VALID,93.2263,VALID,0,VALID,23.0573,VALID,6,VALID,0,
2010-11-28, 01:21:04,VALID,998.832,VALID,0,VALID,93.234,VALID,0,VALID,23.0201,VALID,6,VALID,0,
2010-11-28, 01:22:04,VALID,998.782,VALID,0,VALID,93.2416,VALID,0,VALID,23.0201,VALID,6,VALID,0,
2010-11-28, 01:23:04,VALID,998.8,VALID,0,VALID,93.2492,VALID,0,VALID,22.9811,VALID,6,VALID,0,
2010-11-28, 01:24:04,VALID,998.804,VALID,0,VALID,93.2416,VALID,0,VALID,22.9403,VALID,6,VALID,0,
2010-11-28, 01:25:04,VALID,998.766,VALID,0,VALID,93.2645,VALID,0,VALID,22.9385,VALID,6,VALID,0,
2010-11-28, 01:26:04,VALID,998.751,VALID,0,VALID,93.2568,VALID,0,VALID,22.9598,VALID,6,VALID,0,
2010-11-28, 01:27:04,VALID,998.751,VALID,0,VALID,93.2645,VALID,0,VALID,22.9598,VALID,6,VALID,0,
2010-11-28, 01:28:04,VALID,998.731,VALID,0,VALID,93.2568,VALID,0,VALID,22.919,VALID,6,VALID,0,
2010-11-28, 01:29:04,VALID,998.737,VALID,0,VALID,93.2797,VALID,0,VALID,22.9581,VALID,6,VALID,0,
2010-11-28, 01:30:04,VALID,998.716,VALID,0,VALID,93.2874,VALID,0,VALID,22.9971,VALID,6,VALID,0,
2010-11-28, 01:31:04,VALID,998.766,VALID,0,VALID,93.3026,VALID,0,VALID,23.0166,VALID,6,VALID,0,
2010-11-28, 01:32:04,VALID,998.713,VALID,0,VALID,93.3026,VALID,0.112286,VALID,23.0556,VALID,6,VALID,0.430859,
2010-11-28, 01:33:04,VALID,998.742,VALID,0,VALID,93.3179,VALID,0,VALID,23.1159,VALID,6,VALID,0.466406,
2010-11-28, 01:34:04,VALID,998.768,VALID,0,VALID,93.3103,VALID,0,VALID,23.1141,VALID,6,VALID,0.449609,
2010-11-28, 01:35:04,VALID,998.745,VALID,0,VALID,93.3179,VALID,0,VALID,23.1549,VALID,6,VALID,0.446094,
2010-11-28, 01:36:04,VALID,998.742,VALID,0,VALID,93.3255,VALID,0.112286,VALID,23.1549,VALID,6,VALID,0.347656,
2010-11-28, 01:37:04,VALID,998.724,VALID,0,VALID,93.3484,VALID,0,VALID,23.1549,VALID,6,VALID,0.284375,
2010-11-28, 01:38:04,VALID,998.699,VALID,0,VALID,93.3484,VALID,0,VALID,23.1744,VALID,6,VALID,0.278125,
2010-11-28, 01:39:04,VALID,998.698,VALID,0,VALID,93.3637,VALID,0,VALID,23.1549,VALID,6,VALID,0,
2010-11-28, 01:40:04,VALID,998.684,VALID,0,VALID,93.3484,VALID,0,VALID,23.1354,VALID,6,VALID,0,
2010-11-28, 01:41:04,VALID,998.675,VALID,0,VALID,93.3637,VALID,0,VALID,23.1354,VALID,6,VALID,0,
2010-11-28, 01:42:04,VALID,998.693,VALID,0,VALID,93.3789,VALID,0,VALID,23.0964,VALID,6,VALID,0,
2010-11-28, 01:43:04,VALID,998.704,VALID,0,VALID,93.356,VALID,0,VALID,23.1354,VALID,6,VALID,0.0175781,
2010-11-28, 01:44:04,VALID,998.667,VALID,0,VALID,93.3713,VALID,0,VALID,23.1176,VALID,6,VALID,0.362109,
2010-11-28, 01:45:04,VALID,998.667,VALID,0,VALID,93.3484,VALID,0,VALID,23.0964,VALID,6,VALID,0.222266,
2010-11-28, 01:46:04,VALID,998.7,VALID,0,VALID,93.3789,VALID,0,VALID,23.0573,VALID,6,VALID,0.364062,
2010-11-28, 01:47:04,VALID,998.677,VALID,0,VALID,93.3637,VALID,0,VALID,23.0573,VALID,6,VALID,0.397266,
2010-11-28, 01:48:04,VALID,998.679,VALID,0,VALID,93.3408,VALID,0,VALID,23.0573,VALID,6,VALID,0.407813,
2010-11-28, 01:49:04,VALID,998.695,VALID,0,VALID,93.3789,VALID,0,VALID,23.0573,VALID,6,VALID,0.352734,
2010-11-28, 01:50:04,VALID,998.704,VALID,0,VALID,93.3942,VALID,0,VALID,23.0769,VALID,6,VALID,0.278125,
2010-11-28, 01:51:04,VALID,998.7,VALID,0,VALID,93.3866,VALID,0,VALID,23.0964,VALID,6,VALID,0.161328,
2010-11-28, 01:52:04,VALID,998.694,VALID,0,VALID,93.3713,VALID,0,VALID,23.1159,VALID,6,VALID,0,
2010-11-28, 01:53:04,VALID,998.693,VALID,0,VALID,93.4018,VALID,0,VALID,23.1354,VALID,6,VALID,0,
2010-11-28, 01:54:04,VALID,998.691,VALID,0,VALID,93.3942,VALID,0,VALID,23.1566,VALID,6,VALID,0,
2010-11-28, 01:55:04,VALID,998.677,VALID,0,VALID,93.4094,VALID,0,VALID,23.1141,VALID,6,VALID,0,
2010-11-28, 01:56:04,VALID,998.683,VALID,0,VALID,93.3789,VALID,0,VALID,23.1354,VALID,6,VALID,0,
2010-11-28, 01:57:04,VALID,998.64,VALID,0,VALID,93.3942,VALID,0,VALID,23.0946,VALID,6,VALID,0,
2010-11-28, 01:58:04,VALID,998.65,VALID,0,VALID,93.4018,VALID,0,VALID,23.1336,VALID,6,VALID,0,
2010-11-28, 01:59:04,VALID,998.635,VALID,0,VALID,93.4018,VALID,0.112286,VALID,23.1531,VALID,6,VALID,0,
2010-11-28, 02:00:04,VALID,998.651,VALID,0,VALID,93.4094,VALID,0,VALID,23.1939,VALID,6,VALID,0,
2010-11-28, 02:01:04,VALID,998.65,VALID,0,VALID,93.4171,VALID,0,VALID,23.2134,VALID,6,VALID,0,
2010-11-28, 02:02:04,VALID,998.635,VALID,0,VALID,93.4094,VALID,0,VALID,23.2117,VALID,6,VALID,0,
2010-11-28, 02:03:04,VALID,998.623,VALID,0,VALID,93.3942,VALID,0,VALID,23.2117,VALID,6,VALID,0,
2010-11-28, 02:04:04,VALID,998.634,VALID,0,VALID,93.3789,VALID,0,VALID,23.1726,VALID,6,VALID,0,
2010-11-28, 02:05:04,VALID,998.635,VALID,0,VALID,93.3942,VALID,0.112286,VALID,23.1336,VALID,6,VALID,0,
2010-11-28, 02:06:04,VALID,998.632,VALID,0,VALID,93.4018,VALID,0,VALID,23.0946,VALID,6,VALID,0,
2010-11-28, 02:07:04,VALID,998.658,VALID,0,VALID,93.3789,VALID,0,VALID,23.0946,VALID,6,VALID,0,
2010-11-28, 02:08:04,VALID,998.644,VALID,0,VALID,93.3866,VALID,0,VALID,23.0946,VALID,6,VALID,0,
2010-11-28, 02:09:04,VALID,998.646,VALID,0,VALID,93.3942,VALID,0,VALID,23.1531,VALID,6,VALID,0,
2010-11-28, 02:10:04,VALID,998.623,VALID,0,VALID,93.4018,VALID,0,VALID,23.1549,VALID,6,VALID,0,
2010-11-28, 02:11:04,VALID,998.611,VALID,0,VALID,93.4094,VALID,0,VALID,23.1549,VALID,6,VALID,0,
2010-11-28, 02:12:04,VALID,998.591,VALID,0,VALID,93.4018,VALID,0,VALID,23.2152,VALID,6,VALID,0,
2010-11-28, 02:13:04,VALID,998.552,VALID,0,VALID,93.4018,VALID,0,VALID,23.2134,VALID,16,VALID,0.482812,
2010-11-28, 02:14:05,VALID,998.545,VALID,0,VALID,93.4018,VALID,0,VALID,23.1744,VALID,145,VALID,0.8875,
2010-11-28, 02:15:05,VALID,998.523,VALID,0,VALID,93.4018,VALID,0,VALID,23.1354,VALID,116,VALID,0.803125,
2010-11-28, 02:16:05,VALID,998.545,VALID,0,VALID,93.3789,VALID,0,VALID,23.1354,VALID,135,VALID,0.255469,
2010-11-28, 02:17:05,VALID,998.547,VALID,0,VALID,93.3789,VALID,0,VALID,23.1566,VALID,135,VALID,0,
2010-11-28, 02:18:05,VALID,998.557,VALID,0,VALID,93.3713,VALID,0,VALID,23.1566,VALID,135,VALID,0,
2010-11-28, 02:19:05,VALID,998.512,VALID,0,VALID,93.356,VALID,0,VALID,23.1159,VALID,135,VALID,0,
2010-11-28, 02:20:05,VALID,998.524,VALID,0,VALID,93.356,VALID,0,VALID,23.1159,VALID,135,VALID,0,
2010-11-28, 02:21:05,VALID,998.516,VALID,0,VALID,93.3408,VALID,0,VALID,23.1159,VALID,135,VALID,0,
2010-11-28, 02:22:05,VALID,998.516,VALID,0,VALID,93.3255,VALID,0,VALID,23.0964,VALID,135,VALID,0,
2010-11-28, 02:23:05,VALID,998.481,VALID,0,VALID,93.3026,VALID,0,VALID,23.1176,VALID,95,VALID,0,
2010-11-28, 02:24:05,VALID,998.501,VALID,0,VALID,93.3103,VALID,0,VALID,23.1354,VALID,95,VALID,0,
2010-11-28, 02:25:05,VALID,998.466,VALID,0,VALID,93.295,VALID,0,VALID,23.1159,VALID,92,VALID,0,
2010-11-28, 02:26:05,VALID,998.475,VALID,0,VALID,93.2492,VALID,0,VALID,23.1159,VALID,91,VALID,0.0289063,
2010-11-28, 02:27:05,VALID,998.449,VALID,0,VALID,93.234,VALID,0,VALID,23.0964,VALID,64,VALID,0.796875,
2010-11-28, 02:28:05,VALID,998.454,VALID,0,VALID,93.1882,VALID,0,VALID,23.1159,VALID,61,VALID,0.743359,
2010-11-28, 02:29:05,VALID,998.446,VALID,0,VALID,93.1577,VALID,0,VALID,23.0964,VALID,61,VALID,0.667969,
2010-11-28, 02:30:05,VALID,998.437,VALID,0,VALID,93.1271,VALID,0,VALID,23.1176,VALID,61,VALID,0.630078,
2010-11-28, 02:31:05,VALID,998.397,VALID,0,VALID,93.0814,VALID,0,VALID,23.0573,VALID,48,VALID,0.668359,
2010-11-28, 02:32:05,VALID,998.414,VALID,0,VALID,93.028,VALID,0,VALID,23.0591,VALID,48,VALID,0.479297,
2010-11-28, 02:33:05,VALID,998.373,VALID,0,VALID,92.9822,VALID,0,VALID,23.0378,VALID,48,VALID,0.397656,
2010-11-28, 02:34:05,VALID,998.379,VALID,0,VALID,92.944,VALID,0,VALID,23.0201,VALID,48,VALID,0.226172,
2010-11-28, 02:35:05,VALID,998.383,VALID,0,VALID,92.9135,VALID,0,VALID,22.9988,VALID,48,VALID,0.447266,
2010-11-28, 02:36:05,VALID,998.369,VALID,0,VALID,92.883,VALID,0,VALID,23.0396,VALID,48,VALID,0.524219,
2010-11-28, 02:37:05,VALID,998.373,VALID,0,VALID,92.8601,VALID,0,VALID,23.0378,VALID,48,VALID,0.526563,
2010-11-28, 02:38:05,VALID,998.404,VALID,0,VALID,92.883,VALID,0,VALID,23.0378,VALID,48,VALID,0.365625,
2010-11-28, 02:39:05,VALID,998.374,VALID,0,VALID,92.8906,VALID,0,VALID,23.0378,VALID,48,VALID,0.212109,
2010-11-28, 02:40:05,VALID,998.398,VALID,0,VALID,92.8754,VALID,0,VALID,23.0751,VALID,48,VALID,0.20625,
2010-11-28, 02:41:05,VALID,998.418,VALID,0,VALID,92.8906,VALID,0,VALID,23.0964,VALID,48,VALID,0.0339844,
2010-11-28, 02:42:05,VALID,998.385,VALID,0,VALID,92.883,VALID,0,VALID,23.0183,VALID,48,VALID,0.155078,
2010-11-28, 02:43:05,VALID,998.375,VALID,0,VALID,92.8754,VALID,0,VALID,23.0166,VALID,90,VALID,0.803125,
2010-11-28, 02:44:05,VALID,998.393,VALID,0,VALID,92.883,VALID,0,VALID,23.0361,VALID,109,VALID,0.386719,
2010-11-28, 02:45:05,VALID,998.372,VALID,0,VALID,92.8525,VALID,0,VALID,23.0378,VALID,109,VALID,0.139453,
2010-11-28, 02:46:05,VALID,998.353,VALID,0,VALID,92.8677,VALID,0,VALID,23.0378,VALID,109,VALID,0,
2010-11-28, 02:47:05,VALID,998.356,VALID,0,VALID,92.8372,VALID,0,VALID,23.0183,VALID,109,VALID,0,
2010-11-28, 02:48:05,VALID,998.325,VALID,0,VALID,92.8525,VALID,0,VALID,23.0183,VALID,109,VALID,0,
2010-11-28, 02:49:05,VALID,998.339,VALID,0,VALID,92.822,VALID,0,VALID,22.9971,VALID,109,VALID,0,
2010-11-28, 02:50:05,VALID,998.333,VALID,0,VALID,92.7914,VALID,0,VALID,22.9776,VALID,109,VALID,0,
2010-11-28, 02:51:05,VALID,998.338,VALID,0,VALID,92.7838,VALID,0.112286,VALID,22.9793,VALID,109,VALID,0,
2010-11-28, 02:52:05,VALID,998.332,VALID,0,VALID,92.7609,VALID,0,VALID,22.9581,VALID,109,VALID,0,
2010-11-28, 02:53:05,VALID,998.331,VALID,0,VALID,92.7762,VALID,0,VALID,22.9988,VALID,109,VALID,0,
2010-11-28, 02:54:05,VALID,998.332,VALID,0,VALID,92.7991,VALID,0.112286,VALID,22.9776,VALID,109,VALID,0,
2010-11-28, 02:55:05,VALID,998.392,VALID,0,VALID,92.8067,VALID,0,VALID,22.9598,VALID,109,VALID,0,
2010-11-28, 02:56:05,VALID,998.392,VALID,0,VALID,92.822,VALID,0,VALID,23.0006,VALID,109,VALID,0,
2010-11-28, 02:57:05,VALID,998.397,VALID,0,VALID,92.8448,VALID,0,VALID,23.0006,VALID,109,VALID,0,
2010-11-28, 02:58:05,VALID,998.4,VALID,0,VALID,92.8525,VALID,0,VALID,22.9598,VALID,109,VALID,0,
2010-11-28, 02:59:05,VALID,998.379,VALID,0,VALID,92.8677,VALID,0,VALID,23.0006,VALID,109,VALID,0,
2010-11-28, 03:00:05,VALID,998.347,VALID,0,VALID,92.8601,VALID,0,VALID,23.0201,VALID,111,VALID,0.526172,
2010-11-28, 03:01:05,VALID,998.364,VALID,0,VALID,92.8677,VALID,0,VALID,23.0183,VALID,111,VALID,0.195703,
2010-11-28, 03:02:05,VALID,998.347,VALID,0,VALID,92.8677,VALID,0,VALID,23.0378,VALID,111,VALID,0.233984,
2010-11-28, 03:03:05,VALID,998.361,VALID,0,VALID,92.883,VALID,0,VALID,23.0378,VALID,111,VALID,0,
2010-11-28, 03:04:05,VALID,998.399,VALID,0,VALID,92.8601,VALID,0,VALID,23.0378,VALID,111,VALID,0.46875,
2010-11-28, 03:05:05,VALID,998.407,VALID,0,VALID,92.8525,VALID,0,VALID,23.0396,VALID,111,VALID,0.308984,
2010-11-28, 03:06:05,VALID,998.414,VALID,0,VALID,92.8143,VALID,0,VALID,23.0183,VALID,111,VALID,0.219141,
2010-11-28, 03:07:05,VALID,998.414,VALID,0,VALID,92.7762,VALID,0,VALID,23.0396,VALID,111,VALID,0,
2010-11-28, 03:08:05,VALID,998.399,VALID,0,VALID,92.7304,VALID,0,VALID,22.9988,VALID,111,VALID,0,
2010-11-28, 03:09:05,VALID,998.405,VALID,0,VALID,92.7075,VALID,0,VALID,22.9988,VALID,111,VALID,0,
2010-11-28, 03:10:05,VALID,998.45,VALID,0,VALID,92.677,VALID,0,VALID,22.9988,VALID,111,VALID,0,
2010-11-28, 03:11:05,VALID,998.469,VALID,0,VALID,92.6694,VALID,0,VALID,23.0201,VALID,111,VALID,0,
2010-11-28, 03:12:05,VALID,998.485,VALID,0,VALID,92.6617,VALID,0,VALID,23.0591,VALID,51,VALID,0.622656,
2010-11-28, 03:13:05,VALID,998.526,VALID,0,VALID,92.6694,VALID,0,VALID,23.0786,VALID,34,VALID,0.695313,
2010-11-28, 03:14:05,VALID,998.534,VALID,0,VALID,92.6846,VALID,0,VALID,23.0786,VALID,34,VALID,0.640625,
2010-11-28, 03:15:05,VALID,998.573,VALID,0,VALID,92.6541,VALID,0,VALID,23.0378,VALID,34,VALID,0.632422,
2010-11-28, 03:16:05,VALID,998.539,VALID,0,VALID,92.6236,VALID,0,VALID,23.0201,VALID,34,VALID,0.653516,
2010-11-28, 03:17:05,VALID,998.544,VALID,0,VALID,92.6083,VALID,0,VALID,23.0183,VALID,34,VALID,0.528516,
2010-11-28, 03:18:05,VALID,998.557,VALID,0,VALID,92.5931,VALID,0,VALID,23.0201,VALID,34,VALID,0.442187,
2010-11-28, 03:19:05,VALID,998.559,VALID,0,VALID,92.616,VALID,0,VALID,22.9988,VALID,34,VALID,0.422266,
2010-11-28, 03:20:05,VALID,998.555,VALID,0,VALID,92.5854,VALID,0,VALID,23.0183,VALID,34,VALID,0.333203,
2010-11-28, 03:21:05,VALID,998.577,VALID,0,VALID,92.5702,VALID,0,VALID,23.0183,VALID,34,VALID,0.148438,
2010-11-28, 03:22:05,VALID,998.573,VALID,0,VALID,92.5626,VALID,0,VALID,23.0006,VALID,34,VALID,0,
2010-11-28, 03:23:05,VALID,998.591,VALID,0,VALID,92.532,VALID,0,VALID,22.9811,VALID,34,VALID,0,
2010-11-28, 03:24:05,VALID,998.603,VALID,0,VALID,92.471,VALID,0,VALID,22.9811,VALID,34,VALID,0,
2010-11-28, 03:25:05,VALID,998.589,VALID,0,VALID,92.4863,VALID,0,VALID,22.9403,VALID,34,VALID,0,
2010-11-28, 03:26:05,VALID,998.607,VALID,0,VALID,92.471,VALID,0,VALID,22.8995,VALID,34,VALID,0,
2010-11-28, 03:27:05,VALID,998.581,VALID,0,VALID,92.4328,VALID,0,VALID,22.9013,VALID,34,VALID,0,
2010-11-28, 03:28:05,VALID,998.603,VALID,0,VALID,92.41,VALID,0,VALID,22.8623,VALID,34,VALID,0,
2010-11-28, 03:29:05,VALID,998.614,VALID,0,VALID,92.4176,VALID,0,VALID,22.841,VALID,34,VALID,0,
2010-11-28, 03:30:05,VALID,998.634,VALID,0,VALID,92.4557,VALID,0,VALID,22.8623,VALID,34,VALID,0,
2010-11-28, 03:31:05,VALID,998.622,VALID,0,VALID,92.4863,VALID,0,VALID,22.8623,VALID,34,VALID,0,
2010-11-28, 03:32:05,VALID,998.63,VALID,0,VALID,92.5244,VALID,0,VALID,22.8427,VALID,34,VALID,0,
2010-11-28, 03:33:05,VALID,998.624,VALID,0,VALID,92.5473,VALID,0.112286,VALID,22.8427,VALID,34,VALID,0,
2010-11-28, 03:34:05,VALID,998.637,VALID,0,VALID,92.6083,VALID,0,VALID,22.841,VALID,34,VALID,0,
2010-11-28, 03:35:05,VALID,998.633,VALID,0,VALID,92.6617,VALID,0,VALID,22.8605,VALID,34,VALID,0.0433594,
2010-11-28, 03:36:05,VALID,998.655,VALID,0,VALID,92.6923,VALID,0,VALID,22.841,VALID,34,VALID,0.311719,
2010-11-28, 03:37:05,VALID,998.712,VALID,0,VALID,92.7151,VALID,0,VALID,22.8232,VALID,34,VALID,0,
2010-11-28, 03:38:05,VALID,998.707,VALID,0,VALID,92.7228,VALID,0,VALID,22.802,VALID,34,VALID,0,
2010-11-28, 03:39:05,VALID,998.759,VALID,0,VALID,92.7533,VALID,0.112286,VALID,22.7825,VALID,34,VALID,0,
2010-11-28, 03:40:05,VALID,998.77,VALID,0,VALID,92.7228,VALID,0,VALID,22.7257,VALID,34,VALID,0,
2010-11-28, 03:41:05,VALID,998.796,VALID,0,VALID,92.7762,VALID,0,VALID,22.7062,VALID,34,VALID,0,
2010-11-28, 03:42:05,VALID,998.787,VALID,0,VALID,92.8143,VALID,0,VALID,22.7469,VALID,34,VALID,0,
2010-11-28, 03:43:05,VALID,998.787,VALID,0,VALID,92.8677,VALID,0,VALID,22.7452,VALID,34,VALID,0,
2010-11-28, 03:44:05,VALID,998.814,VALID,0,VALID,92.9211,VALID,0,VALID,22.7842,VALID,34,VALID,0,
2010-11-28, 03:45:05,VALID,998.81,VALID,0,VALID,92.9364,VALID,0,VALID,22.7647,VALID,34,VALID,0,
2010-11-28, 03:46:05,VALID,998.827,VALID,0,VALID,93.0127,VALID,0,VALID,22.7842,VALID,34,VALID,0,
2010-11-28, 03:47:05,VALID,998.833,VALID,0,VALID,93.0356,VALID,0,VALID,22.8232,VALID,34,VALID,0,
2010-11-28, 03:48:05,VALID,998.805,VALID,0,VALID,93.0356,VALID,0,VALID,22.8037,VALID,34,VALID,0,
2010-11-28, 03:49:05,VALID,998.826,VALID,0,VALID,93.0585,VALID,0,VALID,22.7842,VALID,34,VALID,0,
2010-11-28, 03:50:05,VALID,998.868,VALID,0,VALID,93.0814,VALID,0,VALID,22.8055,VALID,34,VALID,0,
2010-11-28, 03:51:05,VALID,998.853,VALID,0,VALID,93.0432,VALID,0,VALID,22.7257,VALID,34,VALID,0,
2010-11-28, 03:52:05,VALID,998.856,VALID,0,VALID,93.0585,VALID,0,VALID,22.6672,VALID,34,VALID,0,
2010-11-28, 03:53:05,VALID,998.872,VALID,0,VALID,93.0508,VALID,0,VALID,22.6672,VALID,34,VALID,0,
2010-11-28, 03:54:05,VALID,998.817,VALID,0,VALID,93.0203,VALID,0,VALID,22.6087,VALID,34,VALID,0,
2010-11-28, 03:55:05,VALID,998.827,VALID,0,VALID,92.9974,VALID,0,VALID,22.5909,VALID,34,VALID,0,